View from above orbital plane
|
View from above satellite
|
Ground track
|
The orbit data is extracted from the following two-line orbital elements,
1 40043U 14033AK 21016.85553751 .00000146 00000-0 28600-4 0 9992
2 40043 97.6846 228.5068 0060579 29.8701 330.5944 14.74466857353492
Epoch (UTC): | 16 January 2021 20:31:58 |
Eccentricity: | 0.0060579 |
inclination: | 97.6846° |
perigee height: | 604 km |
apogee height: | 689 km |
right ascension of ascending node: | 228.5068° |
argument of perigee: | 29.8701° |
revolutions per day: | 14.74466857 |
mean anomaly at epoch: | 330.5944° |
orbit number at epoch: | 35349 |
The dashed part of the orbit path shows where the satellite is in the earth's shadow,
|
|